| time (UTC) | temp F | wind direction | speed MPH | gust MPH | rain 1hr in | rain 24hr in | rain mn in | humidity % | barometer mb |
| 20260509145602 | 79 | 355 | 4.0 | 3.0 | 0.00 | 0.00 | 0.00 | ||
| 20260509145102 | 79 | 263 | 2.0 | 3.0 | 0.00 | 0.00 | 0.00 | ||
| 20260509144602 | 79 | 331 | 2.0 | 3.0 | 0.00 | 0.00 | 0.00 | ||
| 20260509144103 | 78 | 49 | 2.0 | 3.0 | 0.00 | 0.00 | 0.00 | ||
| 20260509143602 | 78 | 351 | 2.0 | 2.0 | 0.00 | 0.00 | 0.00 | ||
| 20260509143102 | 79 | 341 | 3.0 | 2.0 | 0.00 | 0.00 | 0.00 | ||
| 20260509142102 | 78 | 187 | 2.0 | 1.0 | 0.00 | 0.00 | 0.00 | ||
| 20260509141602 | 77 | 329 | 2.0 | 0.0 | 0.00 | 0.00 | 0.00 | ||
| 20260509141102 | 77 | 304 | 3.0 | 1.0 | 0.00 | 0.00 | 0.00 | ||
| 20260509140602 | 76 | 306 | 3.0 | 3.0 | 0.00 | 0.00 | 0.00 | ||
| 20260509135602 | 76 | 307 | 3.0 | 3.0 | 0.00 | 0.00 | 0.00 | ||
| 20260509135102 | 76 | 280 | 2.0 | 1.0 | 0.00 | 0.00 | 0.00 | ||
| 20260509134602 | 76 | 338 | 2.0 | 3.0 | 0.00 | 0.00 | 0.00 | ||
| 20260509134103 | 76 | 344 | 1.0 | 2.0 | 0.00 | 0.00 | 0.00 | ||
| 20260509133602 | 74 | 338 | 3.0 | 5.0 | 0.00 | 0.00 | 0.00 | ||
| 20260509133102 | 74 | 310 | 2.0 | 3.0 | 0.00 | 0.00 | 0.00 | ||
| 20260509132602 | 73 | 321 | 3.0 | 2.0 | 0.00 | 0.00 | 0.00 | ||
| 20260509132104 | 72 | 41 | 3.0 | 2.0 | 0.00 | 0.00 | 0.00 | ||
| 20260509131602 | 72 | 1 | 4.0 | 6.0 | 0.00 | 0.00 | 0.00 | ||
| 20260509131102 | 72 | 335 | 2.0 | 3.0 | 0.00 | 0.00 | 0.00 | ||
| 20260509130602 | 71 | 328 | 3.0 | 4.0 | 0.00 | 0.00 | 0.00 | ||
| 20260509125602 | 71 | 352 | 4.0 | 5.0 | 0.00 | 0.00 | 0.00 | ||
| 20260509125102 | 71 | 8 | 3.0 | 4.0 | 0.00 | 0.00 | 0.00 | ||
| 20260509124603 | 71 | 342 | 3.0 | 2.0 | 0.00 | 0.00 | 0.00 | ||
| 20260509124102 | 70 | 332 | 4.0 | 4.0 | 0.00 | 0.00 | 0.00 | ||
| 20260509123602 | 70 | 324 | 2.0 | 4.0 | 0.00 | 0.00 | 0.00 | ||
| 20260509123102 | 70 | 336 | 2.0 | 4.0 | 0.00 | 0.00 | 0.00 | ||
| 20260509122603 | 69 | 338 | 0.0 | 0.0 | 0.00 | 0.00 | 0.00 | ||
| 20260509122102 | 68 | 342 | 1.0 | 4.0 | 0.00 | 0.00 | 0.00 | ||
| 20260509121602 | 68 | 324 | 0.0 | 1.0 | 0.00 | 0.00 | 0.00 | ||
| 20260509121103 | 68 | 318 | 0.0 | 0.0 | 0.00 | 0.00 | 0.00 | ||
| 20260509120602 | 68 | 287 | 0.0 | 0.0 | 0.00 | 0.00 | 0.00 | ||
| 20260509115602 | 67 | 293 | 1.0 | 1.0 | 0.00 | 0.00 | 0.00 | ||
| 20260509115103 | 67 | 244 | 1.0 | 2.0 | 0.00 | 0.00 | 0.00 | ||
| 20260509114603 | 67 | 252 | 1.0 | 2.0 | 0.00 | 0.00 | 0.00 | ||
| 20260509114102 | 67 | 258 | 0.0 | 0.0 | 0.00 | 0.00 | 0.00 | ||
| 20260509113603 | 67 | 267 | 0.0 | 0.0 | 0.00 | 0.00 | 0.00 | ||
| 20260509113103 | 67 | 229 | 1.0 | 1.0 | 0.00 | 0.00 | 0.00 | ||
| 20260509112603 | 68 | 211 | 0.0 | 0.0 | 0.00 | 0.00 | 0.00 | ||
| 20260509112103 | 68 | 220 | 1.0 | 1.0 | 0.00 | 0.00 | 0.00 | ||
| 20260509111603 | 67 | 252 | 1.0 | 3.0 | 0.00 | 0.00 | 0.00 | ||
| 20260509111103 | 68 | 248 | 0.0 | 0.0 | 0.00 | 0.00 | 0.00 | ||
| 20260509110602 | 68 | 255 | 1.0 | 1.0 | 0.00 | 0.00 | 0.00 | ||
| 20260509110104 | 68 | 269 | 2.0 | 2.0 | 0.00 | 0.00 | 0.00 | ||
| 20260509105603 | 68 | 245 | 0.0 | 0.0 | 0.00 | 0.00 | 0.00 | ||
| 20260509105103 | 69 | 289 | 1.0 | 2.0 | 0.00 | 0.00 | 0.00 | ||
| 20260509104603 | 69 | 289 | 0.0 | 0.0 | 0.00 | 0.00 | 0.00 | ||
| 20260509104108 | 69 | 289 | 0.0 | 0.0 | 0.00 | 0.00 | 0.00 | ||
| 20260509103603 | 70 | 289 | 0.0 | 0.0 | 0.00 | 0.00 | 0.00 | ||
| 20260509103103 | 70 | 289 | 0.0 | 0.0 | 0.00 | 0.00 | 0.00 | ||
| 20260509102602 | 70 | 266 | 2.0 | 3.0 | 0.00 | 0.00 | 0.00 | ||
| 20260509101603 | 71 | 244 | 2.0 | 3.0 | 0.00 | 0.00 | 0.00 | ||
| 20260509100605 | 71 | 258 | 0.0 | 0.0 | 0.00 | 0.00 | 0.00 | ||
| 20260509095603 | 71 | 204 | 1.0 | 0.0 | 0.00 | 0.00 | 0.00 | ||
| 20260509095103 | 71 | 286 | 0.0 | 0.0 | 0.00 | 0.00 | 0.00 | ||
| 20260509094603 | 71 | 286 | 0.0 | 0.0 | 0.00 | 0.00 | 0.00 | ||
| 20260509094103 | 71 | 351 | 1.0 | 0.0 | 0.00 | 0.00 | 0.00 | ||
| 20260509093603 | 71 | 338 | 3.0 | 4.0 | 0.00 | 0.00 | 0.00 | ||
| 20260509093103 | 71 | 351 | 3.0 | 3.0 | 0.00 | 0.00 | 0.00 | ||
| 20260509092603 | 71 | 352 | 6.0 | 10.0 | 0.00 | 0.00 | 0.00 | ||
| 20260509092103 | 71 | 359 | 3.0 | 3.0 | 0.00 | 0.00 | 0.00 | ||
| 20260509091604 | 71 | 328 | 5.0 | 7.0 | 0.00 | 0.00 | 0.00 | ||
| 20260509091103 | 71 | 228 | 1.0 | 1.0 | 0.00 | 0.00 | 0.00 | ||
| 20260509090603 | 71 | 201 | 2.0 | 1.0 | 0.00 | 0.00 | 0.00 | ||
| 20260509090104 | 71 | 53 | 1.0 | 0.0 | 0.00 | 0.00 | 0.00 | ||
| 20260509085103 | 71 | 256 | 4.0 | 4.0 | 0.00 | 0.00 | 0.00 | ||
| 20260509084604 | 71 | 231 | 4.0 | 6.0 | 0.00 | 0.00 | 0.00 | ||
| 20260509083604 | 71 | 234 | 4.0 | 6.0 | 0.00 | 0.00 | 0.00 | ||
| 20260509083103 | 71 | 210 | 3.0 | 4.0 | 0.00 | 0.00 | 0.00 | ||
| 20260509082603 | 71 | 225 | 3.0 | 7.0 | 0.00 | 0.00 | 0.00 | ||
| 20260509081603 | 70 | 206 | 3.0 | 3.0 | 0.00 | 0.00 | 0.00 | ||
| 20260509081103 | 70 | 197 | 2.0 | 1.0 | 0.00 | 0.00 | 0.00 | ||
| 20260509080603 | 70 | 196 | 3.0 | 3.0 | 0.00 | 0.00 | 0.00 | ||
| 20260509075603 | 70 | 175 | 2.0 | 2.0 | 0.00 | 0.00 | 0.00 | ||
| 20260509075103 | 70 | 201 | 2.0 | 2.0 | 0.00 | 0.00 | 0.00 | ||
| 20260509074603 | 70 | 165 | 0.0 | 1.0 | 0.00 | 0.00 | 0.00 | ||
| 20260509074104 | 70 | 184 | 2.0 | 2.0 | 0.00 | 0.00 | 0.00 | ||
| 20260509073603 | 70 | 170 | 2.0 | 1.0 | 0.00 | 0.00 | 0.00 | ||
| 20260509073103 | 71 | 234 | 2.0 | 5.0 | 0.00 | 0.00 | 0.00 | ||
| 20260509072603 | 71 | 248 | 2.0 | 3.0 | 0.00 | 0.00 | 0.00 | ||
| 20260509071603 | 71 | 180 | 3.0 | 2.0 | 0.00 | 0.00 | 0.00 | ||
| 20260509071104 | 71 | 283 | 2.0 | 1.0 | 0.00 | 0.00 | 0.00 | ||
| 20260509070603 | 71 | 228 | 3.0 | 4.0 | 0.00 | 0.00 | 0.00 | ||
| 20260509065603 | 71 | 228 | 2.0 | 3.0 | 0.00 | 0.00 | 0.00 | ||
| 20260509065104 | 70 | 227 | 1.0 | 1.0 | 0.00 | 0.00 | 0.00 | ||
| 20260509063603 | 70 | 255 | 1.0 | 1.0 | 0.00 | 0.00 | 0.00 | ||
| 20260509063104 | 70 | 258 | 1.0 | 1.0 | 0.00 | 0.00 | 0.00 | ||
| 20260509061604 | 71 | 234 | 0.0 | 0.0 | 0.00 | 0.00 | 0.00 | ||
| 20260509060604 | 71 | 327 | 0.0 | 0.0 | 0.00 | 0.00 | 0.00 | ||
| 20260509060104 | 71 | 327 | 0.0 | 0.0 | 0.00 | 0.00 | 0.00 | ||
| 20260509055606 | 71 | 327 | 0.0 | 0.0 | 0.00 | 0.00 | 0.00 | ||
| 20260509055104 | 71 | 327 | 0.0 | 0.0 | 0.00 | 0.00 | 0.00 | ||
| 20260509054604 | 71 | 327 | 0.0 | 0.0 | 0.00 | 0.00 | 0.00 | ||
| 20260509053604 | 71 | 327 | 0.0 | 0.0 | 0.00 | 0.00 | 0.00 | ||
| 20260509051604 | 70 | 348 | 3.0 | 4.0 | 0.00 | 0.00 | 0.00 | ||
| 20260509051104 | 69 | 244 | 0.0 | 0.0 | 0.00 | 0.00 | 0.00 | ||
| 20260509050604 | 70 | 244 | 0.0 | 0.0 | 0.00 | 0.00 | 0.00 | ||
| 20260509050104 | 70 | 244 | 0.0 | 0.0 | 0.00 | 0.00 | 0.00 | ||
| 20260509045604 | 71 | 244 | 0.0 | 0.0 | 0.00 | 0.00 | 0.00 | ||
| 20260509045104 | 71 | 244 | 0.0 | 0.0 | 0.00 | 0.00 | 0.00 | ||
| 20260509044604 | 71 | 244 | 0.0 | 0.0 | 0.00 | 0.00 | 0.00 | ||
| 20260509043604 | 71 | 197 | 0.0 | 0.0 | 0.00 | 0.00 | 0.00 | ||
| 20260509043104 | 72 | 197 | 2.0 | 1.0 | 0.00 | 0.00 | 0.00 | ||
| 20260509042604 | 72 | 227 | 1.0 | 3.0 | 0.00 | 0.00 | 0.00 | ||
| 20260509041604 | 72 | 179 | 1.0 | 1.0 | 0.00 | 0.00 | 0.00 | ||
| 20260509041105 | 72 | 217 | 0.0 | 0.0 | 0.00 | 0.00 | 0.00 | ||
| 20260509040605 | 72 | 183 | 1.0 | 1.0 | 0.00 | 0.00 | 0.00 | ||
| 20260509040104 | 72 | 107 | 1.0 | 0.0 | 0.00 | 0.00 | 0.00 | ||
| 20260509035604 | 72 | 110 | 0.0 | 0.0 | 0.00 | 0.00 | 0.00 | ||
| 20260509035104 | 72 | 110 | 0.0 | 0.0 | 0.00 | 0.00 | 0.00 | ||
| 20260509034604 | 72 | 110 | 0.0 | 0.0 | 0.00 | 0.00 | 0.00 | ||
| 20260509034104 | 72 | 110 | 0.0 | 0.0 | 0.00 | 0.00 | 0.00 | ||
| 20260509033604 | 72 | 110 | 0.0 | 0.0 | 0.00 | 0.00 | 0.00 | ||
| 20260509033105 | 72 | 110 | 0.0 | 0.0 | 0.00 | 0.00 | 0.00 | ||
| 20260509032605 | 72 | 110 | 0.0 | 0.0 | 0.00 | 0.00 | 0.00 | ||
| 20260509032104 | 73 | 110 | 0.0 | 0.0 | 0.00 | 0.00 | 0.00 | ||
| 20260509031605 | 73 | 110 | 0.0 | 0.0 | 0.00 | 0.00 | 0.00 | ||
| 20260509031104 | 73 | 99 | 0.0 | 0.0 | 0.00 | 0.00 | 0.00 | ||
| 20260509030604 | 73 | 165 | 0.0 | 0.0 | 0.00 | 0.00 | 0.00 | ||
| 20260509025605 | 72 | 155 | 0.0 | 0.0 | 0.00 | 0.00 | 0.00 | ||
| 20260509025104 | 73 | 155 | 0.0 | 0.0 | 0.00 | 0.00 | 0.00 | ||
| 20260509024604 | 73 | 76 | 2.0 | 1.0 | 0.00 | 0.00 | 0.00 | ||
| 20260509023604 | 73 | 200 | 1.0 | 1.0 | 0.00 | 0.00 | 0.00 | ||
| 20260509023104 | 73 | 175 | 2.0 | 3.0 | 0.00 | 0.00 | 0.00 | ||
| 20260509022605 | 73 | 97 | 1.0 | 0.0 | 0.00 | 0.00 | 0.00 | ||
| 20260509021604 | 73 | 159 | 1.0 | 2.0 | 0.00 | 0.00 | 0.00 | ||
| 20260509021104 | 73 | 180 | 1.0 | 2.0 | 0.00 | 0.00 | 0.00 | ||
| 20260509020605 | 73 | 180 | 2.0 | 3.0 | 0.00 | 0.00 | 0.00 | ||
| 20260509015604 | 73 | 139 | 0.0 | 0.0 | 0.00 | 0.00 | 0.00 | ||
| 20260509015105 | 73 | 189 | 0.0 | 0.0 | 0.00 | 0.00 | 0.00 | ||
| 20260509014604 | 73 | 169 | 1.0 | 2.0 | 0.00 | 0.00 | 0.00 | ||
| 20260509013605 | 74 | 107 | 1.0 | 1.0 | 0.00 | 0.00 | 0.00 | ||
| 20260509012605 | 73 | 175 | 1.0 | 2.0 | 0.00 | 0.00 | 0.00 | ||
| 20260509012105 | 73 | 124 | 1.0 | 0.0 | 0.00 | 0.00 | 0.00 | ||
| 20260509011105 | 73 | 165 | 0.0 | 0.0 | 0.00 | 0.00 | 0.00 | ||
| 20260509010605 | 73 | 165 | 0.0 | 0.0 | 0.00 | 0.00 | 0.00 | ||
| 20260509005605 | 73 | 176 | 0.0 | 0.0 | 0.00 | 0.00 | 0.00 | ||
| 20260509005105 | 74 | 176 | 0.0 | 0.0 | 0.00 | 0.00 | 0.00 | ||
| 20260509004605 | 74 | 176 | 2.0 | 0.0 | 0.00 | 0.00 | 0.00 | ||
| 20260509003605 | 74 | 200 | 0.0 | 1.0 | 0.00 | 0.00 | 0.00 | ||
| 20260509003105 | 74 | 100 | 1.0 | 0.0 | 0.00 | 0.00 | 0.00 | ||
| 20260509002105 | 73 | 114 | 1.0 | 1.0 | 0.00 | 0.00 | 0.00 | ||
| 20260509001605 | 74 | 166 | 1.0 | 3.0 | 0.00 | 0.00 | 0.00 | ||
| 20260509001105 | 75 | 94 | 0.0 | 0.0 | 0.00 | 0.00 | 0.00 | ||
| 20260509000605 | 74 | 41 | 2.0 | 1.0 | 0.00 | 0.00 | 0.00 | ||
| 20260508235605 | 75 | 137 | 1.0 | 3.0 | 0.00 | 0.00 | 0.00 | ||
| 20260508235105 | 75 | 134 | 2.0 | 2.0 | 0.00 | 0.00 | 0.00 | ||
| 20260508233605 | 75 | 176 | 3.0 | 1.0 | 0.00 | 0.00 | 0.00 | ||
| 20260508231105 | 75 | 217 | 1.0 | 1.0 | 0.00 | 0.00 | 0.00 | ||
| 20260508225606 | 76 | 152 | 2.0 | 1.0 | 0.00 | 0.00 | 0.00 | ||
| 20260508225106 | 76 | 139 | 4.0 | 3.0 | 0.00 | 0.00 | 0.00 | ||
| 20260508221106 | 76 | 203 | 3.0 | 3.0 | 0.00 | 0.00 | 0.00 | ||
| 20260508220606 | 76 | 90 | 4.0 | 4.0 | 0.00 | 0.00 | 0.00 | ||
| 20260508215105 | 77 | 217 | 5.0 | 12.0 | 0.00 | 0.00 | 0.00 | ||
| 20260508214606 | 77 | 224 | 4.0 | 3.0 | 0.00 | 0.00 | 0.00 | ||
| 20260508213606 | 77 | 131 | 3.0 | 2.0 | 0.00 | 0.00 | 0.00 | ||
| 20260508211106 | 77 | 211 | 5.0 | 7.0 | 0.00 | 0.00 | 0.00 | ||
| 20260508210605 | 77 | 163 | 2.0 | 0.0 | 0.00 | 0.00 | 0.00 | ||
| 20260508205606 | 76 | 172 | 3.0 | 3.0 | 0.00 | 0.00 | 0.00 | ||
| 20260508205106 | 76 | 160 | 3.0 | 3.0 | 0.00 | 0.00 | 0.00 | ||
| 20260508204106 | 78 | 172 | 2.0 | 1.0 | 0.00 | 0.00 | 0.00 | ||
| 20260508203106 | 75 | 110 | 2.0 | 3.0 | 0.00 | 0.00 | 0.00 | ||
| 20260508201606 | 72 | 94 | 1.0 | 1.0 | 0.00 | 0.00 | 0.00 | ||
| 20260508201106 | 72 | 158 | 0.0 | 1.0 | 0.00 | 0.00 | 0.00 | ||
| 20260508195606 | 73 | 246 | 4.0 | 5.0 | 0.00 | 0.00 | 0.00 | ||
| 20260508195106 | 72 | 210 | 3.0 | 4.0 | 0.00 | 0.00 | 0.00 | ||
| 20260508194606 | 73 | 200 | 4.0 | 2.0 | 0.00 | 0.00 | 0.00 | ||
| 20260508193606 | 74 | 227 | 4.0 | 3.0 | 0.00 | 0.00 | 0.00 | ||
| 20260508191106 | 75 | 175 | 3.0 | 5.0 | 0.00 | 0.00 | 0.00 | ||
| 20260508190606 | 75 | 269 | 3.0 | 5.0 | 0.00 | 0.00 | 0.00 | ||
| 20260508185606 | 75 | 246 | 4.0 | 6.0 | 0.00 | 0.00 | 0.00 | ||
| 20260508185107 | 75 | 242 | 4.0 | 7.0 | 0.00 | 0.00 | 0.00 | ||
| 20260508184606 | 75 | 259 | 3.0 | 4.0 | 0.00 | 0.00 | 0.00 | ||
| 20260508183606 | 75 | 210 | 3.0 | 2.0 | 0.00 | 0.00 | 0.00 | ||
| 20260508183106 | 76 | 232 | 4.0 | 4.0 | 0.00 | 0.00 | 0.00 | ||
| 20260508181107 | 80 | 218 | 3.0 | 3.0 | 0.00 | 0.00 | 0.00 | ||
| 20260508180606 | 79 | 106 | 4.0 | 3.0 | 0.00 | 0.00 | 0.00 | ||
| 20260508175606 | 76 | 222 | 2.0 | 2.0 | 0.00 | 0.00 | 0.00 | ||
| 20260508175229 | 77 | 160 | 2.0 | 2.0 | 0.00 | 0.00 | 0.00 | ||
| 20260508175106 | 77 | 160 | 2.0 | 2.0 | 0.00 | 0.00 | 0.00 | ||
| 20260508174607 | 76 | 179 | 2.0 | 1.0 | 0.00 | 0.00 | 0.00 | ||
| 20260508173606 | 75 | 228 | 3.0 | 3.0 | 0.00 | 0.00 | 0.00 | ||
| 20260508173106 | 74 | 244 | 2.0 | 4.0 | 0.00 | 0.00 | 0.00 | ||
| 20260508172606 | 74 | 141 | 1.0 | 0.0 | 0.00 | 0.00 | 0.00 | ||
| 20260508171606 | 76 | 200 | 1.0 | 1.0 | 0.00 | 0.00 | 0.00 | ||
| 20260508171107 | 78 | 117 | 2.0 | 4.0 | 0.00 | 0.00 | 0.00 | ||
| 20260508170606 | 77 | 229 | 4.0 | 7.0 | 0.00 | 0.00 | 0.00 | ||
| 20260508170106 | 75 | 258 | 3.0 | 3.0 | 0.00 | 0.00 | 0.00 | ||
| 20260508165607 | 75 | 248 | 3.0 | 4.0 | 0.00 | 0.00 | 0.00 | ||
| 20260508165106 | 75 | 273 | 1.0 | 2.0 | 0.00 | 0.00 | 0.00 | ||
| 20260508164606 | 76 | 172 | 4.0 | 5.0 | 0.00 | 0.00 | 0.00 | ||
| 20260508163607 | 76 | 232 | 3.0 | 4.0 | 0.00 | 0.00 | 0.00 | ||
| 20260508163106 | 74 | 199 | 2.0 | 2.0 | 0.00 | 0.00 | 0.00 | ||
| 20260508162606 | 72 | 46 | 1.0 | 1.0 | 0.00 | 0.00 | 0.00 | ||
| 20260508162106 | 71 | 122 | 2.0 | 1.0 | 0.00 | 0.00 | 0.00 | ||
| 20260508160606 | 69 | 263 | 1.0 | 0.0 | 0.00 | 0.00 | 0.00 | ||
| 20260508160107 | 69 | 175 | 1.0 | 1.0 | 0.00 | 0.00 | 0.00 | ||
| 20260508155606 | 69 | 227 | 1.0 | 0.0 | 0.00 | 0.00 | 0.00 | ||
| 20260508155106 | 70 | 241 | 2.0 | 2.0 | 0.00 | 0.00 | 0.00 | ||
| 20260508154106 | 70 | 197 | 2.0 | 3.0 | 0.00 | 0.00 | 0.00 | ||
| 20260508153606 | 70 | 238 | 2.0 | 2.0 | 0.00 | 0.00 | 0.00 | ||
| 20260508153107 | 70 | 187 | 1.0 | 6.0 | 0.00 | 0.00 | 0.00 | ||
| 20260508152607 | 70 | 113 | 1.0 | 2.0 | 0.00 | 0.00 | 0.00 | ||
| 20260508152107 | 70 | 111 | 1.0 | 2.0 | 0.00 | 0.00 | 0.00 | ||
| 20260508151108 | 69 | 224 | 1.0 | 1.0 | 0.00 | 0.00 | 0.00 | ||
| 20260508150607 | 69 | 68 | 1.0 | 2.0 | 0.00 | 0.00 | 0.00 |